Wind_Gust
14 15 13 13 12 12 13 11 12 11 9 10 10 10 9 10 10 10 8 10 10 9 9 9 8 8 8 8 9 9 9 9 8 6 7 7 8 7 6 8 5 5 5 4 2 3 3 5 10 8 5 6 7 8 7 7 8 9 9 10 11 11 8 6 10 13 9 10 8 11 12 10 13 13 13 13 15 16 16 19 21 22 23 24 27
16 15 13 13 13 14 13 11 12 10 10 10 11 12 10 10 9 7 7 9 8 10 10 9 8 8 8 9 9 9 9 11 6 10 9 5 5 6 5 5 5 5 3 2 3 3 5 4 8 11 5 7 6 7 7 9 10 9 11 10 11 12 9 9 6 9 14 10 13 11 13 12 11 11 12 14 14 14 19 20 21 21 23 23 25
16 14 14 13 14 14 12 11 11 10 10 10 10 11 11 10 8 9 10 9 8 9 9 9 9 9 8 10 8 8 8 7 9 10 9 8 9 7 3 6 6 6 5 3 4 4 6 5 6 8 8 8 6 7 7 10 10 10 11 10 12 10 12 7 6 10 9 10 8 11 11 10 10 11 11 13 13 14 18 20 20 22 23 23 24
16 15 13 14 13 11 12 10 10 10 10 11 11 11 11 10 8 9 10 9 10 9 9 9 8 8 8 9 9 9 7 8 9 9 11 10 8 8 7 6 5 3 3 3 3 4 4 6 6 6 8 7 7 9 9 10 11 11 9 11 11 11 11 8 7 7 6 10 9 12 10 9 11 9 9 13 15 16 16 18 20 21 21 23 23
16 15 14 14 11 12 11 10 10 10 12 11 12 12 11 11 9 10 9 9 10 9 9 9 9 10 12 11 10 9 10 9 9 12 11 16 15 12 13 9 8 7 4 6 7 4 6 7 3 5 7 7 7 8 9 10 11 12 9 12 12 12 11 10 10 7 7 8 8 8 9 9 10 11 12 11 12 15 15 21 20 19 19 21 20
15 14 13 13 12 11 11 10 11 12 13 12 13 12 12 10 11 11 10 11 9 9 9 10 10 12 13 12 11 11 10 9 11 13 12 9 8 9 9 8 7 7 6 3 3 5 8 7 7 8 7 7 7 7 8 8 9 10 11 12 12 11 10 11 10 8 8 5 7 10 9 13 11 13 10 11 11 13 14 18 19 21 22 22 23
13 14 13 12 11 11 11 12 13 12 13 13 12 11 11 11 11 12 11 12 12 13 13 13 12 11 12 11 11 11 10 12 13 13 12 11 12 11 11 12 12 9 8 6 7 8 8 5 8 8 7 5 5 6 7 7 9 8 9 11 11 11 9 11 11 8 9 9 8 8 9 11 10 11 11 10 13 13 13 16 21 19 21 22 22
13 12 12 11 11 13 13 13 13 13 12 12 12 13 12 11 12 11 10 12 14 14 14 14 14 11 12 12 11 10 14 12 12 13 14 14 13 13 13 9 7 7 8 11 11 8 6 7 9 9 8 7 6 5 4 5 6 6 9 11 11 11 9 9 10 8 8 9 11 9 9 12 14 10 10 10 12 15 15 16 19 19 19 21 22
12 12 12 12 12 12 12 11 13 13 13 12 12 12 12 12 11 11 11 13 13 14 13 13 12 11 15 13 10 11 14 14 14 15 15 12 10 9 7 9 9 8 10 7 6 6 7 5 10 8 8 10 10 8 7 7 5 6 8 9 10 9 8 8 8 8 8 10 11 10 10 13 12 11 13 12 12 14 13 13 18 16 16 21 23
11 10 11 9 9 9 9 7 9 10 11 12 13 13 12 12 12 12 13 14 13 12 12 12 11 12 12 11 11 12 12 13 15 19 16 13 11 9 9 10 10 11 12 10 7 8 8 7 10 12 13 11 10 8 6 5 6 5 3 6 9 10 9 8 9 9 8 10 11 11 12 14 14 12 10 7 6 9 12 12 16 13 15 21 21
7 7 8 7 8 8 9 10 9 9 11 11 10 10 12 12 12 13 13 13 13 12 11 10 10 11 11 11 11 12 13 14 17 19 17 16 12 10 10 10 10 11 10 7 7 9 10 7 11 11 12 11 8 10 7 6 4 6 6 7 8 9 8 8 8 9 10 10 10 11 11 12 14 12 10 9 12 11 10 10 13 14 18 20 20
7 6 10 11 12 11 10 12 11 12 13 13 12 11 11 10 11 12 12 12 13 11 10 10 10 10 11 10 11 14 14 13 18 18 18 17 12 13 11 10 9 10 10 10 10 9 8 5 6 7 9 7 6 8 9 7 6 7 8 6 5 7 8 6 6 9 9 10 10 11 11 11 12 12 12 11 13 13 12 13 15 16 18 19 19
14 13 11 11 12 13 13 13 11 12 11 11 10 10 9 11 11 11 13 11 9 8 10 10 11 10 11 10 12 13 11 15 18 18 18 17 16 13 10 11 11 12 10 14 11 8 7 6 6 5 8 12 7 8 8 6 8 9 9 9 7 6 7 9 10 10 5 9 8 10 11 9 11 12 12 13 8 12 10 15 15 17 17 19 16
13 12 12 11 10 10 9 10 12 12 12 12 11 11 10 10 9 9 10 9 9 8 8 10 10 10 11 10 10 11 13 14 18 17 16 19 17 14 10 10 10 10 11 13 13 11 7 8 7 6 8 11 8 7 5 4 4 8 6 7 7 6 7 11 9 7 8 8 8 9 8 8 9 7 8 8 12 12 14 13 13 17 17 18 14
12 10 11 10 10 11 12 12 12 11 11 10 9 9 9 10 9 9 9 10 11 10 10 10 9 9 10 10 9 10 13 16 17 19 19 18 19 16 10 9 9 10 10 13 16 6 6 8 10 9 9 10 7 5 7 5 6 4 7 10 7 5 7 8 10 8 8 7 7 7 5 5 5 7 10 10 11 10 12 15 16 17 19 16 17
12 12 13 12 13 12 13 12 12 12 12 12 12 12 11 11 12 11 11 12 10 9 11 9 10 11 10 9 8 10 11 17 17 17 18 19 19 12 11 11 9 8 9 15 14 6 5 8 10 10 10 9 8 8 7 5 6 7 10 11 8 6 6 7 7 8 11 9 7 6 6 6 7 7 13 15 14 13 14 12 11 13 18 18 19
13 12 12 12 12 12 12 13 11 11 13 13 12 11 12 12 11 11 12 13 12 13 12 11 11 10 10 10 11 10 9 15 18 19 19 19 14 12 11 9 8 10 10 12 7 8 6 8 11 13 11 9 7 8 10 8 8 6 9 9 9 8 5 5 6 8 9 9 7 7 6 8 8 8 15 14 13 11 13 15 12 12 18 19 17
14 13 12 12 12 12 13 14 13 14 14 14 13 12 12 11 11 11 11 11 14 14 12 13 13 12 10 12 13 12 11 15 19 18 20 22 16 16 13 11 11 10 10 10 8 10 10 17 13 13 12 8 6 10 12 9 9 7 11 9 13 8 7 6 8 5 5 4 5 6 7 8 9 9 12 13 11 9 15 18 12 13 17 16 18
14 14 13 14 15 14 12 13 13 13 14 13 12 11 10 11 13 13 13 12 13 13 14 14 14 14 13 12 12 13 11 14 20 20 21 21 18 13 13 11 11 10 10 9 8 10 8 14 16 14 13 11 10 10 11 9 7 8 9 10 11 8 8 7 7 6 8 7 6 6 8 7 11 10 10 14 15 13 13 13 11 15 17 15 16
14 13 13 12 12 13 12 13 12 11 12 12 10 11 12 13 14 14 15 15 15 14 15 15 15 15 14 16 18 12 10 12 18 20 20 20 18 14 12 13 13 11 10 10 11 9 9 9 12 13 14 12 11 10 9 7 7 7 8 11 11 9 8 4 6 8 5 5 5 5 7 8 10 10 9 12 14 16 14 12 10 14 17 14 11
12 13 13 13 13 13 13 11 12 12 11 6 9 12 14 15 16 17 15 15 15 17 18 16 16 16 17 17 20 20 15 12 17 21 21 21 19 16 13 15 14 13 13 11 14 14 11 10 8 10 12 12 11 10 10 9 8 7 8 8 5 6 9 5 9 11 5 6 7 8 11 10 10 9 11 13 11 10 10 10 10 9 12 12 10
12 13 13 15 12 12 12 13 11 11 10 12 14 16 16 17 17 15 15 15 16 16 16 17 17 18 17 16 17 19 19 18 16 19 22 21 20 16 16 16 16 15 12 11 15 14 14 12 10 10 13 12 11 9 9 8 10 8 7 5 7 7 8 5 9 8 7 7 9 9 9 11 10 11 13 13 11 11 11 11 11 14 13 10 11
15 14 13 14 12 12 11 11 11 15 14 12 13 15 15 16 17 18 17 17 17 17 17 18 17 18 18 18 18 19 20 20 19 19 19 21 22 19 15 13 13 13 13 12 16 14 13 12 11 13 13 12 11 9 8 8 8 8 7 5 6 7 6 6 9 7 7 9 8 8 8 10 11 11 13 13 10 11 12 12 13 15 15 16 16
13 13 11 11 12 14 14 13 14 12 13 15 14 14 16 16 17 18 17 18 18 18 18 18 18 18 18 18 19 21 21 20 16 21 22 22 20 19 16 15 12 8 10 12 14 16 15 13 13 14 13 14 13 9 6 6 7 9 10 6 6 6 7 10 12 7 6 8 9 9 10 9 10 11 12 12 11 11 14 14 15 15 17 17 16
11 11 13 13 11 16 12 12 13 13 15 14 14 15 15 16 18 18 19 20 20 20 20 20 19 18 19 18 19 20 21 20 16 17 22 21 21 20 17 15 12 14 14 11 13 14 13 15 16 15 13 12 11 9 6 6 9 9 9 7 8 6 9 11 10 9 9 9 9 10 10 10 11 10 12 12 12 13 16 15 14 15 17 19 18
11 13 14 12 12 16 14 12 14 15 14 13 13 14 13 14 16 18 20 21 21 21 20 20 19 19 19 18 19 18 17 18 16 14 11 12 13 17 17 14 12 12 14 15 13 17 19 18 17 14 11 9 8 6 5 7 8 10 7 6 5 5 7 9 9 10 9 10 9 11 12 11 11 11 13 13 13 13 13 14 14 12 13 18 22
11 11 12 12 11 12 12 14 16 14 12 13 14 13 13 13 14 18 21 22 22 22 21 21 20 21 20 20 19 18 16 15 15 14 10 11 11 11 11 11 12 13 15 15 15 17 19 16 13 11 9 8 6 4 5 7 6 6 5 5 7 6 6 8 10 12 9 9 10 10 10 13 12 14 13 12 12 9 9 14 15 12 14 16 21
12 13 13 11 12 14 15 11 14 13 13 13 13 13 14 15 14 17 20 23 24 23 24 23 22 21 21 20 19 20 19 16 15 18 17 14 13 13 12 12 14 15 15 14 14 14 14 9 11 9 7 5 4 5 6 7 7 6 6 7 7 9 6 11 10 9 8 8 8 12 11 12 13 13 13 12 12 11 8 14 17 15 12 16 23
11 12 12 13 12 14 14 14 14 14 13 13 13 13 15 16 16 16 15 23 18 17 17 21 22 22 21 21 21 21 20 21 21 14 19 15 21 21 19 18 17 15 13 13 15 12 12 11 10 10 7 6 5 6 7 7 7 6 6 7 8 7 9 10 11 11 9 11 13 13 13 11 11 12 13 13 12 11 9 13 12 17 13 16 19
11 11 14 12 12 13 13 13 13 15 15 16 17 17 11 14 14 17 16 19 23 22 15 18 17 17 20 20 20 21 21 21 20 20 17 20 20 21 18 17 15 15 15 18 15 15 11 12 10 10 9 7 7 7 8 8 7 7 8 6 9 8 9 10 10 9 10 9 10 13 12 13 12 12 14 13 12 10 9 11 15 15 18 18 19
12 14 12 12 12 13 13 14 14 16 17 18 17 18 19 15 17 25 26 26 27 27 23 22 23 21 16 17 21 22 17 19 23 25 22 20 17 18 16 18 18 17 19 18 14 14 14 13 11 9 9 8 7 8 8 6 8 7 9 11 8 11 11 11 10 11 9 9 11 11 12 12 13 13 14 14 13 12 12 12 13 13 16 17 20
12 12 12 12 13 12 13 14 14 16 19 19 19 18 20 22 20 16 22 22 20 19 21 23 24 21 21 21 17 21 22 23 23 23 23 21 16 17 18 19 19 20 20 18 15 13 13 13 10 10 9 8 10 8 8 9 10 11 7 6 10 11 12 10 11 13 12 11 12 10 11 13 11 11 11 13 14 14 14 14 14 15 15 14 17
11 11 12 12 13 13 14 14 14 17 18 20 21 20 23 24 26 26 21 13 17 20 19 21 21 22 22 24 21 10 15 18 22 22 20 19 14 16 18 20 20 21 19 14 13 13 14 13 11 10 11 10 9 9 10 11 9 7 6 8 12 13 11 12 11 13 11 10 11 11 10 11 10 11 9 12 15 16 15 14 14 14 15 17 15
13 12 13 12 13 14 15 15 16 16 18 17 17 20 19 20 23 25 29 27 22 17 14 16 19 21 20 18 17 18 19 19 21 21 20 19 11 15 16 18 17 19 18 17 14 14 14 13 10 10 10 10 9 10 10 6 5 5 6 7 10 10 10 12 14 14 13 11 11 10 10 11 11 13 13 11 11 14 15 14 15 16 14 15 16
15 12 13 12 14 15 15 16 17 18 14 14 17 18 17 15 14 16 22 23 25 25 24 25 18 17 19 12 15 18 18 19 19 18 18 15 12 14 15 18 16 14 16 13 11 14 14 13 11 10 9 10 9 10 9 4 4 5 4 5 11 12 13 14 14 13 13 12 12 10 10 11 9 10 12 15 15 15 15 15 13 14 15 14 14
14 15 15 15 17 16 16 16 15 14 11 13 13 14 12 11 13 15 14 15 17 19 20 21 22 14 20 10 13 16 17 18 17 15 14 12 15 17 19 16 15 16 17 15 12 12 12 12 11 9 9 8 9 9 8 5 5 7 5 8 13 14 13 13 14 15 12 12 13 13 11 10 11 12 10 13 15 16 16 15 14 14 14 14 13
16 16 17 16 16 16 16 14 14 12 9 11 13 14 13 13 12 14 16 18 15 15 20 19 21 22 17 13 16 14 17 16 15 13 11 10 14 12 10 13 14 14 13 12 11 10 11 12 10 9 8 8 9 7 7 5 7 7 7 6 11 13 13 13 14 15 16 14 13 12 10 11 11 12 16 15 13 15 14 14 15 14 14 15 12
14 17 13 12 15 15 13 15 15 11 13 14 15 14 15 14 14 14 14 15 15 18 18 21 14 21 22 19 19 16 19 12 12 9 7 6 8 9 9 11 10 13 13 11 10 10 11 12 9 10 10 9 9 8 6 7 8 7 7 5 15 12 12 17 16 16 15 14 12 13 12 13 12 13 10 18 18 16 15 14 16 17 16 15 14
15 12 14 16 13 15 16 16 16 18 16 15 15 14 13 14 14 14 14 14 15 15 16 19 20 19 19 19 18 17 20 17 16 16 13 11 9 8 8 8 10 12 10 9 9 8 10 11 10 11 11 9 9 8 9 7 7 7 8 6 15 12 14 14 15 14 14 14 14 14 14 13 12 12 13 16 16 15 15 15 16 18 17 16 16
17 17 14 13 12 12 12 12 14 15 15 16 16 14 14 14 15 15 14 16 14 14 15 15 16 17 18 17 16 17 17 16 14 15 13 12 11 10 9 7 10 11 11 10 9 7 9 12 12 12 10 9 9 8 7 7 8 7 8 8 12 14 13 15 14 15 15 15 14 14 15 13 13 14 14 14 15 15 16 15 15 17 18 18 19
17 17 11 10 8 12 12 13 13 13 15 15 16 15 14 14 15 14 15 14 14 14 14 14 15 15 14 15 15 14 15 15 14 14 13 12 11 11 11 8 10 10 9 12 9 8 10 13 12 12 10 9 9 7 8 4 7 8 6 7 10 12 15 14 15 15 17 15 15 13 13 15 13 15 13 12 10 14 15 17 18 18 19 19 21
17 16 16 14 12 14 15 16 16 15 14 13 14 15 15 14 14 14 13 13 13 13 14 15 16 15 13 16 15 15 15 14 13 13 13 12 12 12 10 8 11 11 12 11 11 11 12 13 12 11 9 10 9 7 6 7 7 8 5 9 12 12 13 13 15 15 15 16 14 16 15 14 13 13 16 10 16 16 17 18 19 20 19 19 18
13 14 14 13 13 15 16 16 16 18 17 16 14 9 11 14 14 13 14 13 13 14 15 17 17 16 16 12 16 13 14 14 9 12 13 14 13 11 12 10 13 11 10 10 9 10 11 13 12 11 9 9 8 8 7 7 5 6 7 10 12 13 14 14 15 16 16 17 17 17 17 16 15 13 14 14 16 16 17 19 18 18 18 18 17
14 12 11 12 15 14 14 17 17 15 15 12 12 14 13 14 14 13 15 15 15 15 17 17 17 18 17 16 13 12 14 16 16 14 15 14 14 12 13 11 12 11 10 13 9 10 12 13 12 10 8 6 7 6 6 4 3 6 8 12 13 13 15 16 17 19 19 17 18 18 17 14 13 12 12 12 17 18 18 18 18 18 17 16 17
16 14 14 16 15 17 18 16 16 18 15 15 17 17 12 18 16 15 15 15 15 16 16 16 16 16 15 14 14 14 14 15 14 14 15 12 13 12 12 10 12 13 12 14 7 12 14 15 14 12 9 6 8 7 5 6 6 6 7 15 15 16 16 18 18 17 20 21 19 17 17 16 14 13 13 15 14 18 16 17 17 13 17 17 18
17 14 15 15 16 15 17 17 12 18 20 20 18 19 18 19 19 17 16 15 15 16 18 17 16 14 14 14 13 12 13 13 14 14 13 13 12 11 12 13 12 12 13 11 10 13 16 16 16 14 10 8 7 9 9 7 8 7 8 13 17 18 16 16 17 17 17 20 19 18 16 16 16 13 12 16 14 17 17 15 14 15 18 17 18
11 15 14 15 17 15 15 14 15 15 17 17 15 15 16 18 18 17 15 17 18 16 17 17 16 15 13 12 11 12 13 14 14 15 12 14 14 13 11 12 12 12 12 9 11 15 17 15 14 17 13 9 7 8 8 7 8 8 7 14 18 19 18 18 17 17 17 17 18 17 16 15 15 14 17 16 13 17 17 16 16 17 15 17 19
16 14 15 15 16 17 18 18 18 10 14 16 14 15 15 17 17 17 17 18 18 17 17 17 16 15 12 12 11 12 11 13 14 13 12 14 13 9 11 11 12 11 9 9 12 15 17 15 14 15 15 10 6 7 7 8 8 8 10 14 17 19 19 15 15 15 15 16 16 17 16 16 15 17 17 16 16 17 18 15 15 17 18 16 17
14 15 16 16 16 17 18 17 15 16 15 14 16 17 17 18 18 18 17 18 18 18 17 17 17 15 12 11 10 11 11 10 13 11 11 11 7 9 10 11 10 11 10 11 14 15 16 15 14 14 13 10 5 6 8 6 8 8 9 10 18 21 19 17 14 15 14 16 14 14 14 17 17 17 18 18 17 16 17 17 17 18 17 16 17
13 14 14 14 15 17 15 17 17 17 14 13 15 18 18 18 18 18 19 19 19 18 18 17 16 14 11 9 9 10 9 10 11 11 11 9 7 8 9 11 10 9 10 12 14 15 15 14 13 13 12 9 6 7 7 6 7 10 11 15 17 20 19 19 17 17 16 12 14 14 16 16 16 17 17 17 17 17 18 18 18 17 18 19 17
15 15 15 16 17 17 19 20 20 20 15 14 16 17 17 19 19 19 19 20 20 19 17 17 15 13 8 8 8 9 9 10 10 10 10 7 7 7 8 9 9 10 10 12 14 15 15 14 13 13 12 10 7 9 6 5 7 9 12 16 18 19 19 18 19 14 16 12 14 16 18 18 18 17 15 15 16 17 18 18 18 18 18 17 17
Wind_Speed
9 9 7 8 8 8 8 7 8 7 6 6 6 6 5 5 5 6 4 5 5 5 5 5 5 5 5 5 5 5 4 5 4 3 4 4 2 2 3 5 3 3 3 2 1 2 0 0 2 2 2 3 3 3 4 3 3 3 3 3 5 3 3 2 2 4 4 2 3 4 5 4 6 6 7 7 8 9 11 11 12 12 13 12 13
10 9 8 8 9 9 8 7 7 6 6 6 6 6 6 6 6 4 5 6 4 6 6 5 5 5 5 6 6 5 5 6 4 5 5 3 1 0 1 3 3 3 2 1 1 1 1 0 2 2 1 3 2 3 3 3 4 3 4 4 4 5 1 1 2 1 3 5 7 6 6 4 6 6 6 8 8 8 11 11 11 12 13 12 12
9 8 8 8 9 9 7 6 5 5 6 6 6 7 7 6 5 6 6 6 5 5 6 6 6 6 5 6 5 4 5 5 5 5 5 5 4 3 1 1 0 2 2 2 3 1 1 1 2 2 0 3 2 2 3 3 3 3 4 3 4 5 4 1 0 1 3 4 3 4 5 5 4 5 6 6 6 7 11 11 11 11 12 13 12
8 8 8 9 8 7 7 6 5 6 6 7 7 7 7 6 5 5 6 5 6 5 4 5 5 5 5 5 5 5 4 4 4 5 7 6 5 3 1 1 2 2 1 1 2 2 2 2 1 2 1 2 2 3 3 3 3 3 4 4 3 4 4 3 1 0 1 3 4 4 4 4 4 4 5 5 6 8 8 10 12 12 12 12 12
7 8 8 9 7 7 6 5 6 6 7 7 8 7 7 7 5 6 6 5 5 4 5 4 5 6 7 7 6 6 6 6 6 6 6 6 5 3 3 2 3 2 2 3 4 3 0 2 1 3 2 2 1 3 3 4 3 3 4 4 4 4 3 2 3 2 3 3 3 3 4 4 4 5 6 6 6 6 8 11 11 10 11 11 11
7 7 7 7 6 7 6 5 7 8 8 7 8 8 7 6 6 6 4 6 5 5 6 5 6 7 7 7 6 7 6 5 7 8 7 6 5 5 5 4 3 3 1 2 2 1 3 1 4 4 3 1 0 1 2 3 3 4 5 5 5 4 3 5 4 4 4 3 2 4 5 4 5 5 5 6 6 6 7 9 11 12 12 12 12
7 7 7 7 5 6 6 7 8 8 7 8 7 6 6 7 6 7 6 8 7 8 8 8 7 7 8 7 6 6 6 6 7 8 8 7 7 7 6 5 5 3 3 3 3 2 2 1 5 5 3 2 2 1 1 2 2 3 3 4 4 4 5 5 4 4 4 4 4 2 3 4 4 5 5 4 5 5 6 8 10 9 10 11 11
6 6 5 5 5 6 6 7 7 7 6 5 5 6 6 6 7 7 5 7 8 8 9 8 8 6 7 6 5 4 5 6 7 8 8 8 8 6 6 5 5 3 3 3 2 1 0 3 5 5 5 3 4 3 2 0 1 3 3 3 4 4 4 4 5 5 4 4 4 4 4 3 5 4 4 5 5 7 7 7 10 9 9 10 11
5 4 4 4 6 6 5 4 4 4 4 5 6 7 7 7 6 6 6 7 7 8 7 7 6 6 5 4 5 6 6 7 7 9 9 7 5 5 4 5 4 5 3 3 3 3 3 3 4 4 4 7 7 6 4 4 2 3 3 3 4 4 4 4 4 5 5 4 4 4 4 5 3 4 5 5 6 5 4 4 8 8 8 10 11
4 4 4 4 4 4 4 4 5 5 6 7 8 7 6 6 6 6 7 7 6 4 5 5 5 6 7 6 7 5 6 6 9 13 9 8 7 4 5 5 5 4 5 3 3 1 2 2 5 9 10 8 7 6 4 2 4 3 1 3 3 4 4 3 4 4 4 4 4 3 4 4 3 3 4 4 3 4 6 6 8 5 8 11 10
4 3 3 4 4 4 3 3 3 3 4 5 5 5 5 5 4 4 5 4 5 7 5 5 5 6 7 7 6 6 6 7 11 12 13 12 7 6 5 5 4 4 3 3 4 3 3 4 5 7 8 8 5 7 6 5 3 3 3 4 4 2 3 4 4 3 3 3 2 3 3 5 5 4 4 5 4 4 4 5 6 7 8 10 9
4 4 6 7 8 7 6 6 7 6 6 5 4 4 3 4 4 4 5 6 7 5 5 6 6 5 5 5 5 7 7 9 11 14 13 12 9 8 7 5 5 5 5 5 4 3 3 2 4 3 1 3 3 4 5 6 4 3 3 4 3 1 1 2 1 2 2 2 2 3 2 2 3 4 5 5 5 5 4 7 8 8 9 9 7
9 8 5 7 7 6 7 7 6 5 4 4 4 4 5 5 5 5 5 5 5 5 6 6 6 5 5 5 7 7 7 9 13 12 11 11 13 10 6 5 6 5 5 5 5 4 4 3 3 1 2 6 5 3 3 2 1 2 4 3 2 5 3 1 3 2 2 3 2 2 0 1 2 3 3 4 3 5 4 7 7 8 8 9 7
7 6 7 6 5 5 5 5 5 4 4 4 5 5 5 5 4 4 4 5 5 5 5 5 6 6 6 6 6 6 6 11 8 10 14 16 14 11 5 6 6 6 6 5 3 4 5 5 4 2 2 4 3 3 2 2 2 1 2 1 1 4 4 1 2 4 3 2 3 2 1 0 1 2 4 4 6 5 6 7 6 8 9 8 5
7 6 7 5 5 5 5 4 4 4 4 4 4 4 4 4 4 4 4 4 5 6 6 5 5 5 5 5 5 6 7 9 10 15 16 15 16 12 5 3 4 4 4 3 3 4 4 5 5 5 3 5 4 2 4 2 2 1 1 3 3 3 4 3 2 2 3 3 2 2 1 2 1 3 6 6 6 4 5 7 8 9 9 7 7
7 7 7 6 6 6 6 6 6 6 5 5 5 5 5 4 5 5 5 6 6 6 7 5 5 6 6 5 4 6 7 8 11 14 14 15 11 6 5 5 5 4 4 4 4 4 3 5 6 5 4 5 5 4 4 3 3 2 4 3 4 4 3 3 3 3 3 3 2 3 2 2 3 1 7 8 8 6 6 6 6 7 8 9 8
7 7 8 7 6 5 5 5 5 6 5 6 6 6 6 7 6 5 7 8 7 7 7 6 6 6 6 5 5 6 6 6 11 12 14 11 9 7 5 5 5 5 5 5 5 4 3 5 6 6 4 3 3 3 3 4 4 3 4 4 3 4 2 2 2 1 3 4 2 4 2 2 3 3 12 12 9 7 7 8 6 6 9 9 7
5 5 6 5 5 5 5 5 7 7 7 6 6 6 6 6 6 5 5 6 7 7 7 7 7 7 6 8 6 6 6 5 10 12 11 12 10 9 7 6 6 6 5 3 4 5 5 10 8 7 6 4 3 4 5 4 3 3 5 5 5 3 1 1 0 1 1 1 0 2 3 3 4 8 10 11 9 5 6 9 6 7 8 7 8
6 6 5 4 5 6 6 7 7 6 6 6 5 5 6 5 5 5 6 6 7 7 8 8 8 8 8 7 9 7 6 2 7 10 9 13 11 7 6 6 6 5 4 4 3 3 4 9 11 9 7 6 6 6 7 5 3 2 5 5 5 4 2 0 0 2 3 3 4 3 5 5 4 4 4 9 9 4 2 6 6 8 9 7 8
4 5 5 6 6 8 6 7 6 5 5 5 5 4 4 6 8 8 9 8 8 8 9 9 9 9 9 10 11 8 4 3 4 8 11 13 12 8 7 7 7 6 5 6 5 2 4 5 7 10 11 9 7 8 7 5 1 2 4 6 6 5 2 2 1 2 2 1 2 2 4 5 4 3 3 4 5 4 4 3 4 7 9 7 5
6 6 6 7 8 7 6 5 6 5 4 4 5 7 8 9 9 10 9 8 9 10 10 9 9 9 10 10 11 12 8 7 3 10 10 13 13 12 7 9 8 6 6 5 5 6 5 5 5 8 10 10 8 7 8 6 2 2 4 4 2 2 2 3 5 7 1 1 1 3 5 4 5 4 4 5 5 4 4 3 3 4 7 6 5
6 7 7 7 6 6 6 6 5 5 5 7 9 9 8 9 9 8 7 8 9 9 9 9 9 9 9 9 10 10 12 15 3 6 10 13 14 13 9 9 7 4 4 3 5 5 6 6 6 7 9 10 9 8 8 7 3 2 4 4 6 6 5 1 5 4 2 2 3 3 5 3 5 4 5 5 5 4 4 4 3 3 3 2 5
7 7 7 6 5 5 5 5 6 6 7 7 7 8 7 9 8 9 9 9 9 9 9 8 8 9 9 9 9 10 11 11 8 2 9 12 14 14 11 6 4 5 6 5 6 6 5 6 6 9 10 10 9 8 7 5 5 3 3 0 3 3 3 3 3 3 3 3 2 2 2 4 6 5 4 5 5 6 6 6 5 6 7 6 6
7 7 5 5 5 5 4 5 6 6 6 6 8 8 8 7 7 7 7 7 7 8 8 8 8 9 9 9 9 10 11 10 10 8 3 9 11 10 7 7 5 5 4 6 4 5 6 6 7 11 11 11 11 9 6 3 4 6 5 2 1 3 4 5 5 3 3 5 4 3 3 4 6 5 5 5 6 7 7 6 6 7 7 7 8
7 5 4 4 5 4 5 5 6 6 6 6 7 6 6 6 7 6 6 6 6 6 6 6 6 7 7 8 8 9 9 10 9 9 7 5 8 9 9 8 8 9 7 6 5 6 9 11 13 11 10 9 8 7 5 2 4 6 4 1 1 4 5 6 5 5 5 6 5 4 4 3 2 5 5 6 7 7 8 7 7 8 9 11 10
5 4 3 4 4 4 5 6 5 5 6 6 6 4 4 5 6 6 6 6 5 6 6 5 6 6 7 7 8 8 8 8 9 8 7 3 2 7 6 8 9 9 6 5 6 9 12 13 13 11 9 6 4 2 3 2 3 5 5 2 1 2 4 6 5 5 5 5 5 6 6 4 3 5 4 5 7 7 7 6 7 6 7 9 11
4 4 3 3 4 4 5 4 4 5 5 4 5 4 5 4 4 4 3 4 4 4 5 5 6 6 7 7 7 8 8 7 8 8 6 5 2 2 4 6 9 9 5 4 6 7 9 9 7 8 5 5 4 1 3 3 2 2 1 1 2 1 3 5 6 6 5 5 5 5 5 4 4 6 6 5 6 5 4 7 7 6 7 8 10
4 4 4 3 4 5 5 5 5 4 3 3 5 6 4 3 3 2 2 3 4 5 5 5 6 6 6 6 6 7 9 9 8 9 10 7 4 4 3 4 5 6 6 5 5 6 7 7 8 5 3 2 1 1 1 1 1 1 2 1 2 1 2 7 6 5 4 4 4 6 5 5 6 6 5 5 5 5 4 7 8 7 6 8 10
4 5 5 5 6 4 5 4 3 3 3 4 3 3 3 3 3 3 1 1 1 2 4 5 4 4 5 6 6 8 9 10 11 12 12 11 7 6 6 5 5 5 7 11 8 5 6 6 5 5 3 3 2 2 1 1 1 1 2 2 2 2 5 6 6 6 5 6 7 7 7 5 5 5 6 5 5 6 5 7 5 8 6 8 9
5 6 5 6 5 5 4 4 3 3 4 4 5 4 3 1 0 2 2 5 6 6 5 4 1 2 4 5 5 4 6 9 14 17 14 14 10 12 9 8 7 7 11 13 9 7 6 6 5 5 4 3 3 2 2 2 2 2 2 3 4 4 5 5 5 6 6 4 3 7 7 6 6 6 7 6 4 5 4 6 7 6 9 8 9
6 6 5 4 3 3 4 4 4 4 3 3 4 2 3 6 8 8 5 5 5 7 8 8 6 4 3 5 7 7 10 15 18 19 18 16 7 10 8 9 10 13 15 10 6 7 6 6 5 4 5 4 3 3 2 2 2 3 2 3 3 5 5 5 5 5 5 6 4 5 6 4 6 7 7 7 7 6 6 5 6 6 7 9 9
6 5 4 3 5 4 4 4 4 3 3 3 3 2 3 3 6 9 12 9 7 7 7 7 8 8 3 3 5 9 14 16 18 18 18 18 6 8 9 10 11 14 11 9 7 5 5 6 5 4 5 4 3 2 3 2 3 4 4 3 4 5 6 6 5 6 6 7 6 6 7 7 6 6 6 7 8 7 6 6 7 8 7 7 8
6 4 4 3 4 4 3 4 4 4 4 3 4 4 4 5 6 6 7 9 9 6 6 7 9 11 9 6 7 6 11 15 17 17 16 16 4 7 8 9 12 14 12 6 6 5 4 5 4 4 4 4 3 3 2 3 2 3 3 4 3 5 5 4 4 6 4 4 5 5 6 5 6 6 5 7 8 7 7 7 6 7 8 8 7
4 4 3 2 3 4 5 6 4 4 3 3 4 4 3 3 4 5 6 6 7 6 4 6 9 11 11 10 9 10 13 16 17 17 16 15 4 6 7 6 10 11 9 7 6 5 5 4 4 4 4 3 2 2 2 2 1 3 3 4 4 4 5 5 5 6 6 4 3 5 6 6 6 7 7 6 6 7 7 7 7 8 7 8 8
4 4 5 4 4 5 5 5 3 4 4 4 3 3 4 3 3 5 5 6 6 7 7 5 7 9 9 7 9 11 13 15 16 15 14 12 7 6 8 7 6 3 2 4 5 6 5 4 5 4 4 4 2 3 2 1 2 3 1 3 4 6 6 6 6 5 5 6 4 3 5 6 6 5 6 8 8 8 7 7 6 7 8 7 7
3 3 3 5 6 6 6 4 4 4 4 3 3 3 3 4 4 5 5 5 5 6 7 6 4 6 10 9 10 10 13 14 14 13 12 9 8 6 2 3 4 4 3 4 5 4 5 4 4 4 3 4 3 3 2 2 3 3 2 4 6 7 7 6 6 5 5 5 5 6 5 5 6 7 5 7 9 9 8 7 6 6 7 7 6
3 5 6 5 6 5 4 4 4 3 3 3 3 3 3 5 4 5 5 5 5 5 6 7 6 5 4 3 9 10 12 12 12 11 9 8 6 4 2 2 4 4 4 5 4 5 4 3 3 3 4 5 4 4 2 2 2 4 5 3 5 7 7 6 7 5 6 6 5 4 5 5 5 6 9 8 8 8 7 7 7 6 7 7 7
4 5 5 5 5 4 3 3 3 3 3 2 2 2 4 4 5 5 6 6 7 6 7 7 7 7 7 6 9 7 9 9 9 6 6 6 5 3 3 1 4 5 5 4 5 6 4 4 3 4 3 5 5 5 4 3 4 5 5 2 4 6 8 7 7 6 4 5 6 5 5 5 4 5 5 9 10 9 8 7 7 7 7 7 6
5 9 12 10 6 3 3 3 2 3 3 3 3 3 3 4 6 6 6 6 6 6 6 6 7 7 7 6 6 7 8 7 7 7 6 6 5 3 2 1 3 4 5 4 5 5 4 5 4 3 3 5 5 3 4 4 4 5 3 4 6 6 7 6 6 6 7 6 6 6 5 5 5 5 7 9 9 9 9 8 8 8 7 7 7
6 5 6 7 3 3 2 2 2 2 2 3 4 3 3 5 6 6 6 6 7 6 6 6 7 7 7 7 7 6 7 6 6 6 5 6 5 5 2 1 2 5 6 5 5 5 4 3 4 4 4 5 5 4 5 3 3 3 3 6 7 7 7 6 6 7 7 6 6 6 6 5 5 5 7 8 8 8 9 9 8 8 9 9 9
5 5 4 3 3 3 3 3 2 3 4 3 3 4 5 5 6 6 6 6 6 7 6 6 7 7 7 8 11 9 5 5 5 5 5 5 5 5 3 2 2 4 5 5 4 4 4 4 4 5 5 5 5 4 3 1 2 3 4 5 6 6 7 7 7 6 6 7 6 6 5 5 6 8 7 7 7 8 7 8 8 8 9 10 10
5 5 3 3 3 4 3 3 3 3 3 4 4 4 5 5 5 6 6 6 6 6 7 7 7 7 8 13 11 11 6 4 4 4 4 4 4 4 4 2 3 4 5 4 4 4 4 5 4 5 5 6 6 4 2 0 2 2 2 6 6 6 7 6 6 7 7 7 6 7 6 6 5 6 9 8 8 8 8 8 9 9 10 10 9
4 3 3 3 4 3 2 2 3 4 4 4 4 4 5 5 5 6 6 7 6 7 7 7 7 7 7 8 9 8 5 4 3 4 4 4 4 4 4 2 4 4 4 4 3 4 5 5 5 5 5 5 5 5 2 0 1 0 1 6 7 7 7 7 7 5 6 7 7 7 7 7 7 6 8 7 8 8 9 9 9 9 9 9 9
4 4 4 3 2 1 2 3 4 4 4 4 4 5 5 5 6 6 7 7 7 7 7 7 7 7 6 7 6 5 4 4 4 4 5 5 4 4 4 1 3 3 3 4 3 3 5 5 5 5 4 4 4 3 1 0 0 1 2 7 8 8 8 8 8 7 7 7 7 7 7 5 6 6 6 7 9 9 9 9 9 9 9 9 9
5 5 4 3 3 3 4 4 3 5 5 5 5 5 4 6 7 7 7 7 7 8 7 7 7 6 6 6 6 5 5 4 4 4 4 4 5 4 4 1 4 4 3 3 3 4 4 5 5 6 5 3 5 4 2 0 0 2 4 8 9 9 9 9 9 8 8 9 7 7 6 6 6 7 6 7 8 10 9 9 9 9 9 9 9
5 4 3 3 3 3 4 4 3 5 5 6 6 6 6 7 7 7 7 7 7 7 7 7 6 6 6 6 5 5 4 4 4 4 5 4 4 4 3 2 4 4 3 3 3 4 4 4 6 6 6 4 4 4 2 3 1 2 4 7 9 10 9 7 7 8 8 9 9 8 7 5 7 7 7 8 8 9 9 8 8 8 9 9 9
5 5 4 3 3 3 3 3 4 5 5 5 6 6 7 7 7 7 7 8 8 7 7 7 6 6 6 6 5 4 4 4 4 5 5 5 5 4 1 3 4 4 3 4 3 5 4 4 5 6 6 4 4 3 4 3 4 1 5 7 6 7 7 7 8 9 8 8 9 9 8 6 7 6 8 8 7 9 10 9 9 10 9 9 10
5 5 4 3 3 3 3 4 5 4 4 5 5 6 7 7 7 7 7 8 8 7 7 7 6 6 6 5 4 4 4 4 4 4 5 5 4 1 4 4 5 4 4 4 3 5 5 4 5 5 5 5 4 3 3 3 2 3 5 7 7 8 9 9 7 7 7 7 8 9 9 8 7 9 8 8 9 9 9 8 8 9 10 9 8
5 4 3 3 3 3 4 5 5 4 4 5 6 7 7 7 7 6 7 7 7 7 7 6 6 6 5 4 4 4 4 4 4 4 5 5 3 5 5 5 5 5 4 4 4 4 4 4 5 5 5 4 3 3 3 2 2 4 5 5 9 14 14 13 9 8 9 8 7 7 7 7 8 9 10 9 8 9 9 10 10 10 9 9 9
4 3 3 3 3 4 5 5 4 4 3 6 6 6 6 7 7 7 7 7 7 7 7 6 6 5 5 5 5 5 5 5 5 5 5 4 3 4 5 5 5 4 3 3 4 4 3 3 4 5 5 3 3 3 3 2 3 5 5 8 13 14 13 14 14 14 10 7 8 8 8 7 7 7 8 9 9 9 10 10 10 10 10 10 9
3 3 2 2 3 3 4 4 5 5 5 6 7 6 6 6 6 6 6 7 7 7 7 7 7 6 5 5 4 5 5 5 5 5 4 4 4 3 5 5 5 4 4 4 4 4 3 3 5 5 4 2 3 4 3 2 3 4 8 13 15 15 15 14 11 11 12 9 7 8 8 9 8 8 7 8 9 9 11 11 10 10 9 9 9
Wind_Direction
206 214 202 210 211 218 221 219 226 227 231 229 233 240 244 248 246 241 255 253 249 251 246 239 235 232 231 231 231 232 231 255 237 191 197 229 235 140 216 235 218 226 215 245 151 148 141 271 302 303 330 48 3 352 1 351 0 15 344 350 353 351 17 328 278 303 307 327 323 321 344 24 27 7 19 11 9 13 25 26 19 20 19 16 15
211 210 206 206 210 219 223 219 222 223 228 235 238 241 244 242 242 248 239 246 226 235 234 233 228 225 224 234 233 229 216 236 214 173 192 191 329 197 272 261 256 273 260 242 182 195 169 161 298 19 14 84 31 4 346 349 356 7 354 345 338 327 325 326 293 256 332 332 354 349 8 22 43 11 23 16 9 15 28 28 26 23 21 15 17
207 203 203 207 214 218 218 221 219 224 227 235 237 241 243 246 239 240 247 246 235 228 230 224 228 225 227 236 235 222 213 212 189 182 166 163 204 229 188 141 219 255 255 248 210 173 60 296 315 59 352 57 4 334 340 2 346 10 339 330 336 324 321 306 288 330 12 336 339 358 4 9 40 20 15 18 13 21 36 32 28 27 24 18 17
199 199 207 214 215 211 217 220 219 224 227 231 234 237 237 239 232 233 240 244 251 248 235 234 231 228 230 237 227 225 233 194 186 182 178 177 186 185 179 199 217 218 183 201 191 142 186 263 359 111 121 76 352 336 346 358 5 343 338 333 331 325 320 327 18 151 48 33 343 7 353 28 10 14 7 15 16 27 40 40 34 32 28 20 19
193 201 206 213 211 210 218 211 217 223 228 231 235 239 240 241 237 237 242 252 247 252 255 239 240 238 235 234 231 220 215 195 179 188 192 192 182 181 199 194 222 213 185 188 178 170 52 261 145 149 144 97 354 349 353 360 344 350 351 335 333 323 317 347 14 53 62 38 348 357 10 30 33 36 22 20 3 19 43 47 38 32 30 26 22
197 197 205 210 211 210 213 207 216 222 226 231 235 237 239 241 244 249 239 257 261 244 242 244 231 235 233 233 227 221 219 195 184 189 195 193 182 189 197 210 233 242 205 210 190 195 232 181 152 159 143 141 169 309 20 353 342 3 2 347 335 330 342 13 21 40 58 41 33 22 19 23 35 41 20 22 20 19 39 49 44 36 29 25 25
195 197 202 207 210 211 207 213 217 224 228 232 237 240 239 242 239 244 221 236 239 246 243 241 239 230 235 233 229 223 216 196 188 192 195 192 184 183 189 204 228 227 200 186 193 183 233 157 162 149 159 179 172 139 65 346 356 7 7 339 338 339 12 17 24 43 49 49 27 25 34 23 57 57 19 15 31 34 33 51 51 38 39 32 28
190 197 194 203 209 221 219 223 224 229 236 242 246 245 245 244 241 240 229 238 240 240 242 239 241 229 237 238 250 239 216 205 198 197 195 187 179 178 178 199 212 217 194 184 144 83 133 170 167 170 167 185 184 147 139 229 337 26 352 358 352 359 22 22 32 37 41 46 40 13 23 46 45 52 35 21 22 33 24 46 59 45 42 41 34
178 173 172 196 220 225 237 240 248 258 251 249 249 249 246 247 247 245 239 242 243 244 246 250 257 252 247 228 237 226 208 210 205 203 197 190 182 176 172 181 186 159 167 143 134 156 171 160 176 167 177 192 195 159 171 171 112 59 357 17 12 9 21 33 41 41 35 47 41 18 40 46 47 64 49 36 22 27 1 33 70 65 59 56 39
136 145 176 214 234 238 238 241 236 232 237 241 245 247 249 250 251 252 253 256 269 289 283 269 258 252 242 235 230 216 219 218 218 208 180 180 173 167 172 181 165 170 158 148 131 170 153 173 199 188 186 191 193 173 140 162 145 138 147 75 43 17 20 31 36 39 49 51 39 26 54 51 40 40 68 49 35 20 43 40 60 54 65 67 57
110 134 190 231 245 253 254 283 316 319 319 313 316 314 303 308 307 306 314 309 282 266 259 264 251 241 236 231 227 221 224 227 221 208 187 172 158 152 189 192 189 171 159 149 155 184 158 198 215 213 193 199 183 162 159 203 171 116 85 85 102 111 67 26 16 47 59 45 26 40 37 66 55 67 81 80 42 21 41 54 66 61 57 58 56
108 72 37 31 37 42 43 48 48 32 24 7 346 327 329 340 333 317 311 306 297 292 278 267 261 253 249 247 238 232 232 233 214 210 186 168 150 169 198 180 185 175 165 167 165 178 167 201 203 225 241 187 170 163 176 183 214 178 169 134 122 20 66 122 45 22 54 82 55 35 16 36 76 80 87 81 78 58 45 67 67 67 70 64 55
58 60 57 50 43 47 48 52 47 38 27 27 27 33 36 31 18 10 354 332 336 334 304 294 282 268 255 251 244 238 240 237 222 205 167 171 182 180 182 189 181 182 178 175 172 173 145 142 176 185 261 232 179 172 166 156 256 279 213 171 189 224 205 233 241 204 155 132 126 60 301 321 70 78 107 116 104 90 64 71 74 76 76 75 64
66 59 53 49 51 55 57 55 48 30 19 21 23 30 31 19 358 351 350 351 349 332 321 305 293 288 273 259 254 246 239 242 217 154 179 195 194 184 187 190 186 178 185 186 174 173 159 175 162 117 79 79 83 118 124 150 214 281 303 76 94 62 105 207 139 193 153 149 133 93 339 349 181 116 103 110 105 99 94 86 87 85 76 73 62
60 54 51 44 48 47 50 49 39 22 26 29 30 30 15 354 351 333 341 340 333 325 315 316 306 295 289 274 264 256 245 242 178 181 192 190 196 187 143 175 173 186 188 176 177 197 173 161 151 140 132 95 78 85 141 150 135 220 89 95 79 70 38 13 351 23 68 75 100 101 32 17 334 110 112 102 98 104 102 106 100 97 94 92 71
57 47 45 38 38 32 34 28 17 9 16 18 25 12 356 349 342 335 349 346 333 329 323 319 310 312 308 294 269 265 262 228 190 194 192 197 180 134 161 173 180 193 184 184 196 202 163 142 134 132 130 128 145 162 169 163 131 108 84 105 85 56 45 23 340 1 73 89 92 70 67 8 329 292 125 120 116 115 103 81 83 93 94 79 72
46 43 40 30 29 24 24 21 11 11 14 23 17 5 354 346 342 347 360 348 337 330 319 309 299 299 303 302 279 267 272 217 195 197 199 171 138 167 167 182 190 194 192 192 194 194 142 136 129 133 130 132 150 134 171 145 89 108 116 111 90 72 18 336 286 4 66 93 114 123 105 357 342 165 122 124 125 132 116 104 99 110 97 96 84
46 49 41 29 26 21 16 18 22 24 29 24 7 355 347 343 345 338 358 344 336 328 326 324 319 313 316 311 293 269 272 213 197 203 193 158 162 168 186 177 199 202 191 192 197 185 149 144 138 139 140 150 151 151 136 114 105 122 135 129 108 102 53 322 21 39 79 310 257 74 93 96 117 119 123 123 128 135 131 120 141 117 104 104 103
43 42 33 23 23 21 19 26 33 30 27 10 3 358 344 323 315 342 353 354 343 342 345 343 337 340 339 323 311 295 281 268 196 199 173 167 172 180 160 185 195 209 173 182 218 166 162 150 145 144 142 149 155 121 97 98 125 159 159 143 133 137 200 241 241 69 15 6 3 46 68 90 100 115 122 129 125 94 84 123 136 120 116 116 116
51 43 33 27 24 26 28 32 30 28 12 358 352 340 330 349 355 357 0 6 1 1 0 357 353 348 346 350 353 344 316 266 201 194 178 179 176 166 175 180 202 201 176 162 165 133 130 127 132 128 133 144 130 105 93 77 88 109 145 157 160 161 142 157 173 72 119 68 340 35 98 96 87 80 86 101 115 121 122 114 127 125 121 124 129
43 37 30 29 29 30 28 28 19 13 9 352 348 2 9 11 14 19 15 13 19 16 9 3 1 358 357 359 353 350 338 298 232 185 185 180 183 177 179 194 206 191 167 153 152 145 135 132 125 144 147 138 125 121 106 78 27 82 98 105 99 140 106 166 154 140 65 345 58 59 50 65 86 87 94 91 100 121 125 102 83 107 125 138 120
41 33 30 30 30 27 21 11 14 10 6 14 15 20 25 35 34 27 23 24 22 18 11 7 3 355 356 356 352 343 341 338 276 189 188 188 191 188 187 203 192 137 104 148 142 148 149 146 150 168 148 133 128 122 105 106 109 76 66 107 122 91 82 177 127 128 110 82 73 50 93 77 82 71 74 81 84 82 90 89 80 66 45 73 125
41 37 36 35 27 20 11 13 10 12 14 17 33 38 35 37 31 28 24 21 19 16 8 5 1 357 353 352 348 343 343 346 334 239 202 197 200 204 199 185 143 112 153 160 184 163 155 149 156 159 145 127 112 98 91 93 92 95 125 309 127 147 170 125 92 114 106 104 94 82 93 100 95 90 83 89 86 92 93 94 91 89 77 63 55
44 43 40 32 23 18 10 8 13 16 21 27 44 50 40 37 37 29 24 25 18 11 5 359 357 359 353 344 345 341 340 338 347 339 267 221 212 211 195 184 153 136 143 163 159 158 154 158 155 155 148 136 126 126 136 118 128 148 141 235 182 101 128 132 157 139 117 127 118 146 129 109 100 96 103 104 100 94 90 85 79 75 79 70 59
49 46 38 26 21 12 8 9 15 19 18 41 57 51 45 39 40 19 23 24 18 11 357 352 358 348 346 344 335 337 333 334 339 343 335 225 214 200 200 182 149 137 136 172 175 178 167 154 150 153 141 129 133 129 104 77 136 144 136 270 48 86 119 140 132 102 102 122 140 118 64 27 83 111 106 103 101 95 88 81 78 82 85 78 67
50 42 27 21 8 9 10 7 17 23 25 49 72 75 70 53 52 25 28 21 12 6 351 350 352 349 346 338 336 330 331 332 335 345 353 359 216 202 190 169 158 147 131 147 194 169 153 149 147 135 123 127 129 133 131 175 158 148 149 165 78 99 117 126 121 117 123 122 136 134 136 127 110 101 96 98 94 98 107 103 97 73 78 86 78
54 41 12 358 354 1 16 22 26 24 33 51 67 70 62 74 60 45 35 20 7 357 352 350 353 352 345 342 337 335 337 343 336 337 350 348 336 225 180 179 150 134 133 118 125 132 141 141 135 124 119 121 91 83 127 119 89 113 75 100 129 165 121 142 149 141 136 136 125 110 100 110 115 100 96 99 95 83 94 105 96 92 91 88 89
48 22 354 327 349 11 22 28 41 40 38 52 56 41 41 55 62 55 53 28 26 5 0 357 1 348 342 349 344 344 340 341 349 339 327 313 274 250 228 186 164 150 133 135 134 138 129 111 102 94 102 82 68 16 56 66 115 128 94 128 146 199 133 125 108 101 114 109 108 115 123 123 122 111 99 93 100 100 97 100 107 99 96 103 91
32 15 3 7 8 20 36 33 36 55 42 38 47 90 79 63 55 360 321 133 74 45 6 16 11 334 344 360 359 355 348 342 337 322 304 286 234 193 200 194 172 151 147 136 126 113 106 106 107 115 129 132 138 140 84 92 48 82 121 135 117 107 111 119 132 135 130 132 143 140 138 129 116 103 110 103 101 105 105 99 88 104 90 87 97
38 28 27 35 26 30 24 16 12 38 53 39 26 5 7 12 40 55 339 335 353 23 47 61 267 327 3 8 9 354 338 315 310 318 315 310 225 205 200 178 166 144 139 143 138 129 130 136 146 143 137 134 152 148 141 150 119 81 75 93 93 105 118 120 134 122 113 109 139 138 142 137 134 131 124 116 99 87 71 103 110 112 108 107 104
51 42 42 32 23 27 22 16 8 37 42 34 24 21 339 335 332 333 338 325 359 24 25 56 67 45 57 5 343 334 331 336 342 342 342 330 253 201 195 176 145 133 138 132 124 133 139 145 151 170 147 148 157 173 172 167 138 114 87 88 99 123 122 132 137 109 110 126 155 150 137 131 141 136 132 127 121 111 95 79 97 97 107 116 113
70 56 40 20 23 23 20 18 26 43 22 20 29 12 352 335 331 330 333 327 358 34 35 43 35 25 31 2 357 340 348 347 343 342 338 332 291 186 182 166 146 142 144 123 115 137 144 144 166 178 133 140 182 160 180 167 119 119 116 108 123 132 132 148 152 129 127 135 146 141 143 143 153 136 133 131 126 120 114 110 109 107 102 99 107
78 57 38 28 22 14 12 21 36 49 37 24 11 2 4 360 347 335 324 323 344 25 44 33 18 2 357 344 339 345 346 340 339 341 341 339 317 169 177 152 141 143 132 129 139 139 139 157 167 132 172 148 172 168 185 119 104 126 138 143 168 161 153 150 128 103 98 113 123 127 125 122 128 129 128 133 131 130 122 112 107 110 116 113 112
95 80 56 37 15 2 20 31 42 38 28 29 16 7 5 355 344 334 338 345 345 352 46 37 13 357 345 344 339 344 349 344 340 341 347 347 340 152 139 128 143 153 150 146 140 142 152 164 151 166 198 126 161 138 104 86 166 172 168 177 197 135 131 129 122 131 131 112 118 135 127 130 137 137 138 133 122 119 117 121 125 126 124 123 126
71 43 30 21 17 22 41 51 50 39 36 20 6 9 357 349 346 352 356 355 351 343 338 352 356 349 341 335 341 345 348 343 341 340 345 356 14 111 104 109 124 142 118 115 136 145 165 166 167 190 181 134 159 133 127 106 98 87 121 163 142 130 133 136 145 137 125 123 115 110 124 128 135 127 133 131 130 128 127 127 129 126 125 124 128
59 29 17 17 31 51 60 63 50 51 32 9 357 355 344 357 4 354 352 348 348 339 336 343 338 331 330 331 344 345 343 340 338 338 340 2 4 9 72 115 127 137 122 123 140 149 170 181 161 191 154 122 146 119 149 120 105 94 64 124 145 127 127 137 143 139 132 121 125 125 118 127 142 137 135 130 131 130 133 134 133 127 122 125 131
38 25 28 38 63 70 68 60 52 41 25 6 355 355 0 8 2 357 352 348 344 340 340 332 333 336 327 318 342 341 336 335 334 331 333 339 347 357 26 135 146 148 140 133 139 151 184 180 158 183 151 138 144 145 153 135 76 61 45 93 134 130 145 154 145 138 138 128 115 126 126 136 139 140 141 128 125 128 129 126 121 115 113 115 113
37 49 57 73 74 71 68 57 40 27 14 357 352 8 14 6 1 356 349 342 342 344 341 338 335 328 332 334 342 344 334 329 329 339 354 358 5 357 347 134 156 160 163 148 140 167 173 155 167 184 169 133 129 133 122 87 59 55 36 67 135 129 131 138 135 129 125 118 131 138 125 127 120 110 117 131 135 136 130 127 123 118 118 115 107
42 65 79 84 83 85 79 63 38 21 2 351 0 13 7 357 359 357 347 340 340 343 340 331 328 323 327 332 332 338 338 344 354 350 342 342 341 325 285 15 150 163 167 154 153 157 148 161 180 177 157 127 135 124 93 70 52 44 43 90 122 124 132 139 137 135 129 132 130 124 120 114 104 113 131 128 131 132 132 134 134 133 125 109 102
65 73 80 89 92 73 77 63 37 13 347 356 0 0 360 1 358 350 342 343 343 339 333 327 322 321 323 329 331 336 339 334 330 331 330 337 338 338 331 312 159 163 175 165 151 148 153 160 162 158 144 123 124 97 75 66 49 50 70 123 141 140 146 146 143 139 138 137 131 124 114 106 108 109 114 122 128 130 133 136 135 128 118 111 111
83 90 93 98 116 83 55 35 11 347 350 360 349 3 5 352 346 342 344 345 340 333 325 321 316 315 318 315 317 324 320 317 316 313 322 321 325 326 334 251 195 173 183 177 160 150 157 156 160 152 132 121 115 98 88 74 48 43 58 120 144 142 142 142 138 133 131 127 122 113 108 112 118 116 112 115 116 116 113 116 112 111 116 121 125
93 96 99 89 70 63 48 6 336 346 356 359 0 3 359 350 342 344 346 342 336 326 321 317 315 313 309 313 315 318 318 298 294 303 307 314 315 315 315 249 211 186 177 170 166 148 148 159 159 145 124 126 119 107 88 60 42 55 78 123 139 136 135 138 136 142 139 128 122 119 120 113 101 101 115 121 117 117 118 119 121 123 123 125 126
95 95 89 75 62 52 44 350 345 3 355 2 358 359 352 342 345 346 345 339 330 323 318 315 311 311 307 308 310 311 300 296 299 305 305 307 307 303 304 250 200 193 167 164 167 149 153 157 154 140 134 142 137 121 120 208 276 102 116 128 138 138 138 132 131 132 122 118 117 120 122 119 114 115 121 117 119 118 120 120 120 121 124 126 127
84 78 70 64 46 0 335 341 358 5 6 359 356 353 343 343 347 352 347 337 330 323 318 312 309 307 307 312 315 312 306 306 307 305 310 304 301 303 311 253 171 156 154 155 131 136 144 149 135 107 109 108 93 101 149 200 173 176 161 128 135 138 142 145 146 150 141 130 127 124 117 112 112 114 117 122 124 121 121 123 126 129 128 127 126
81 78 75 54 19 12 353 342 350 5 8 3 356 349 345 352 353 351 343 335 324 321 316 313 308 307 308 315 317 313 305 302 299 303 306 302 299 303 308 191 156 150 158 141 112 126 139 137 122 121 115 97 77 64 46 301 215 213 160 138 143 148 156 161 165 154 142 133 131 124 125 128 127 124 127 129 127 125 125 133 130 125 122 127 130
85 82 70 54 26 12 5 352 354 13 16 8 355 346 348 355 354 349 338 329 324 318 316 312 315 314 315 315 314 304 302 304 305 304 297 293 293 297 297 165 151 146 160 138 114 128 139 145 134 130 129 112 69 31 9 358 25 245 169 153 160 160 163 153 137 138 143 142 142 138 134 128 128 132 132 128 130 127 125 122 119 123 127 127 125
77 69 60 48 35 16 357 349 10 11 12 5 352 353 354 357 350 341 334 327 323 317 317 319 322 323 325 321 317 315 307 306 311 313 308 304 299 300 288 129 124 138 147 128 116 130 138 149 134 131 131 112 66 27 9 351 330 347 136 136 131 131 137 144 149 147 145 145 137 132 134 133 126 117 120 123 127 126 126 130 131 128 124 127 129
76 69 65 54 41 15 358 4 7 358 3 359 354 356 357 354 349 341 332 327 325 324 322 323 327 330 326 326 321 314 304 306 309 311 308 311 316 34 116 125 127 132 128 116 117 133 138 152 128 123 122 99 67 31 8 350 353 98 123 134 138 141 140 138 130 129 133 139 138 136 136 136 135 128 130 133 134 132 128 124 120 120 125 126 127
83 78 70 51 35 16 8 3 1 350 353 356 358 2 359 352 344 336 331 328 325 325 326 327 332 332 331 329 323 314 317 319 322 327 333 331 35 90 104 112 118 125 115 114 132 133 148 150 121 118 115 105 92 45 22 13 86 112 123 127 136 136 138 136 131 132 131 126 119 119 121 130 134 134 131 132 135 131 128 128 126 128 125 127 131
86 81 71 49 31 12 5 2 355 341 360 9 3 3 356 347 341 337 334 330 327 330 331 335 337 332 333 331 332 331 336 336 336 340 351 359 45 85 96 105 113 120 108 108 119 125 134 119 112 108 102 92 70 49 45 55 122 127 126 132 135 133 130 125 125 130 131 133 133 135 134 129 128 129 131 133 133 132 131 131 134 134 136 138 140
88 77 62 47 21 5 7 3 355 356 15 15 7 358 351 345 339 335 333 331 329 330 333 339 342 338 332 328 324 330 336 334 333 340 360 29 38 63 89 99 107 111 110 108 113 122 115 116 114 108 104 76 60 54 46 45 126 133 134 135 131 128 128 127 128 128 127 127 123 124 127 131 129 126 125 129 131 133 136 136 137 138 142 141 142